Home   Weather   Nzérékoré   Past weeks

Flag for Guinea Past Weather in Nzérékoré, Guinea — Yesterday and Last 2 Weeks

79 °F

Passing clouds.

Feels Like: 83 °F
Forecast: N/A
Wind: No wind

Location: Roberts Field

Current Time: Oct 26, 2016 at 11:20:38 PM

Latest Report: Oct 26, 2016 at 11:00 PM

Visibility: N/A

Pressure: 29.86 "Hg

Humidity: 94%

Dew Point: 77 °F

Location of NzérékoréLocation

Past Weather in Nzérékoré — Graph


Nzérékoré Temperature Yesterday

Maximum temperature yesterday: 90 °F (at 12:00 PM)
Minimum temperature yesterday: 75 °F (at 12:00 AM)
Average temperature yesterday: 80 °F

High & Low Weather Summary for the Past Weeks

High90 °F (Oct 16, 1:30 PM)100% (Oct 14, 7:00 PM)29.95 "Hg (Oct 14, 7:00 PM)
Low73 °F (Oct 12, 6:30 AM)63% (Oct 23, 3:30 PM)29.74 "Hg (Oct 25, 3:30 PM)
Average80 °F87%29.87 "Hg
* Reported Oct 11 10:00 PM — Oct 26 10:00 PM, Nzérékoré, Weather by CustomWeather, © 2016

Note: Actual official high and low records may vary slightly from our data, if they occured in-between our weather recording intervals... More about our weather records


Nzérékoré Weather History for the Previous 24 Hours

Scroll right to see more
Time TempWeatherWind HumidityBarometerVisibility
10:00 PM
Wed, Oct 26
79 °FPassing clouds.No wind94%29.86 "HgN/A
9:30 PM79 °FPassing clouds.No wind94%29.86 "HgN/A
9:00 PM79 °FPassing clouds.No wind94%29.83 "HgN/A
8:30 PM81 °FPassing clouds.No wind84%29.83 "HgN/A
8:00 PM81 °FPassing clouds.No wind84%29.83 "HgN/A
7:30 PM81 °FPassing clouds.No wind84%29.80 "HgN/A
7:00 PM81 °FScattered clouds.No wind84%29.77 "HgN/A
6:30 PM81 °FScattered clouds.No wind84%29.77 "HgN/A
6:00 PM82 °FPartly sunny.6 mph84%29.77 "HgN/A
5:30 PM82 °FPartly sunny.9 mph84%29.74 "HgN/A
5:00 PM84 °FPartly sunny.12 mph79%29.74 "HgN/A
4:30 PM82 °FPartly sunny.7 mph79%29.74 "HgN/A
4:00 PM86 °FPartly sunny.9 mph75%29.74 "HgN/A
3:30 PM86 °FPartly sunny.9 mph75%29.74 "HgN/A
3:00 PM88 °FPartly sunny.12 mph66%29.74 "HgN/A
2:30 PM88 °FPartly sunny.9 mph66%29.77 "HgN/A
2:00 PM88 °FPartly sunny.8 mph70%29.77 "HgN/A
1:00 PM88 °FPartly sunny.9 mph70%29.80 "HgN/A
12:30 PM86 °FPartly sunny.8 mph75%29.83 "HgN/A
12:00 PM86 °FPartly sunny.5 mph79%29.83 "HgN/A
11:30 AM86 °FPartly sunny.7 mph79%29.83 "HgN/A
11:00 AM86 °FPartly sunny.No wind75%29.83 "HgN/A
10:30 AM88 °FPartly sunny.No wind75%29.86 "HgN/A
10:00 AM88 °FPartly sunny.No wind70%29.86 "HgN/A
9:00 AM82 °FScattered clouds.No wind84%29.83 "HgN/A
8:30 AM81 °FScattered clouds.No wind89%29.83 "HgN/A
7:30 AM77 °FPartly sunny.No wind94%29.83 "Hg6 mi
7:00 AM77 °FFog.No wind94%29.80 "Hg1 mi
6:30 AM75 °FFog.No wind94%29.80 "Hg1 mi
6:00 AM77 °FFog.No wind94%29.80 "Hg4 mi
5:30 AM77 °FPassing clouds.No wind94%29.80 "Hg5 mi
12:00 AM77 °FPassing clouds.No wind94%29.83 "HgN/A
11:00 PM
Tue, Oct 25
79 °FPassing clouds.No wind94%29.86 "HgN/A
Weather by CustomWeather, © 2016

See weather overviewHow to use our weather pages